N172SP USRR-USRO

Flight info

Callsign N172SP
Flight time N/A
Altitude 3000
Route ALONG HIGWAYS 71100K10 71100K18 71140P1
Aircraft C172/L-S/L

Departure

Time 2026-04-28 12:12
Airport Surgut International Airport (USRR)

Arrival

Time N/A
Airport Noyabrsk Airport (USRO)
Time Latitude Longitude Altitude Speed Heading
2026-04-28 12:03 61.34141 73.41354 184 ft 0 kts 89°
2026-04-28 12:06 61.34141 73.41363 184 ft 0 kts 85°
2026-04-28 12:06 61.34142 73.41379 183 ft 2 kts 83°
2026-04-28 12:06 61.34161 73.41401 183 ft 3 kts 349°
2026-04-28 12:07 61.34163 73.41401 183 ft 1 kts 356°
2026-04-28 12:07 61.34180 73.41409 183 ft 4 kts 31°
2026-04-28 12:07 61.34184 73.41482 182 ft 8 kts 89°
2026-04-28 12:07 61.34185 73.41610 182 ft 7 kts 93°
2026-04-28 12:08 61.34209 73.41685 182 ft 8 kts
2026-04-28 12:08 61.34271 73.41687 183 ft 9 kts
2026-04-28 12:08 61.34282 73.41686 183 ft 0 kts
2026-04-28 12:10 61.34295 73.41687 184 ft 5 kts 357°
2026-04-28 12:10 61.34356 73.41685 185 ft 12 kts 358°
2026-04-28 12:10 61.34392 73.41576 187 ft 7 kts 269°
2026-04-28 12:10 61.34392 73.41470 188 ft 17 kts 268°
2026-04-28 12:11 61.34393 73.40943 191 ft 55 kts 270°
2026-04-28 12:11 61.34385 73.40082 320 ft 59 kts 261°
2026-04-28 12:11 61.34349 73.39223 508 ft 59 kts 253°
2026-04-28 12:11 61.34312 73.38324 677 ft 63 kts 275°
2026-04-28 12:12 61.34606 73.37576 774 ft 78 kts 336°
2026-04-28 12:12 61.35126 73.37907 889 ft 83 kts 31°
2026-04-28 12:12 61.35608 73.38704 937 ft 92 kts 52°
2026-04-28 12:12 61.35840 73.39874 1120 ft 83 kts 75°
2026-04-28 12:13 61.35927 73.41066 1277 ft 83 kts 80°
2026-04-28 12:13 61.35996 73.42329 1367 ft 89 kts 81°
2026-04-28 12:13 61.36094 73.43596 1473 ft 91 kts 78°
2026-04-28 12:13 61.36192 73.44938 1570 ft 92 kts 81°
2026-04-28 12:14 61.36256 73.46277 1651 ft 94 kts 82°
2026-04-28 12:14 61.36363 73.47648 1691 ft 98 kts 77°
2026-04-28 12:14 61.36539 73.49045 1698 ft 105 kts 72°
2026-04-28 12:14 61.36787 73.50559 1720 ft 112 kts 70°
2026-04-28 12:15 61.37077 73.52078 1757 ft 114 kts 68°
2026-04-28 12:15 61.37391 73.53590 1832 ft 113 kts 64°
2026-04-28 12:15 61.37762 73.55046 1895 ft 114 kts 60°
2026-04-28 12:15 61.38162 73.56498 1924 ft 116 kts 59°
2026-04-28 12:16 61.38583 73.57922 1976 ft 116 kts 58°
2026-04-28 12:16 61.39004 73.59383 2011 ft 117 kts 58°
2026-04-28 12:16 61.39429 73.60834 2044 ft 117 kts 57°
2026-04-28 12:16 61.39880 73.62251 2083 ft 117 kts 54°
2026-04-28 12:17 61.40380 73.63587 2119 ft 117 kts 49°
2026-04-28 12:17 61.40919 73.64879 2154 ft 118 kts 47°
2026-04-28 12:17 61.41476 73.66103 2188 ft 118 kts 46°
2026-04-28 12:17 61.42057 73.67320 2216 ft 118 kts 44°
2026-04-28 12:18 61.42674 73.68485 2252 ft 118 kts 40°
2026-04-28 12:18 61.43320 73.69511 2280 ft 118 kts 34°
2026-04-28 12:18 61.44019 73.70416 2327 ft 118 kts 30°
2026-04-28 12:18 61.44753 73.71220 2356 ft 118 kts 25°
2026-04-28 12:19 61.45511 73.71854 2399 ft 118 kts 19°
2026-04-28 12:19 61.46293 73.72379 2432 ft 118 kts 17°
2026-04-28 12:19 61.47081 73.72908 2469 ft 118 kts 18°
2026-04-28 12:19 61.47860 73.73435 2502 ft 119 kts 17°
2026-04-28 12:20 61.48649 73.73903 2542 ft 118 kts 14°
2026-04-28 12:20 61.49453 73.74307 2569 ft 119 kts 13°
2026-04-28 12:20 61.50255 73.74710 2605 ft 119 kts 13°
2026-04-28 12:20 61.51063 73.75111 2636 ft 119 kts 12°
2026-04-28 12:21 61.51876 73.75459 2669 ft 119 kts
2026-04-28 12:21 61.52691 73.75690 2700 ft 119 kts
2026-04-28 12:21 61.53522 73.75822 2716 ft 120 kts
2026-04-28 12:21 61.54359 73.75884 2736 ft 120 kts
2026-04-28 12:22 61.55188 73.75868 2762 ft 120 kts 358°
2026-04-28 12:22 61.56032 73.75753 2780 ft 120 kts 353°
2026-04-28 12:22 61.56856 73.75524 2807 ft 120 kts 353°
2026-04-28 12:22 61.57685 73.75453 2842 ft 118 kts
2026-04-28 12:23 61.58477 73.75847 2898 ft 117 kts 15°
2026-04-28 12:23 61.59272 73.76255 2959 ft 116 kts 12°
2026-04-28 12:23 61.60059 73.76599 3021 ft 116 kts 10°
2026-04-28 12:23 61.60855 73.76888 3041 ft 118 kts
2026-04-28 12:24 61.61665 73.77161 3099 ft 117 kts 11°
2026-04-28 12:24 61.62420 73.77824 3145 ft 116 kts 27°
2026-04-28 12:24 61.63137 73.78589 3178 ft 118 kts 26°
2026-04-28 12:24 61.63855 73.79335 3305 ft 110 kts 26°
2026-04-28 12:25 61.64549 73.80044 3373 ft 113 kts 25°
2026-04-28 12:25 61.65270 73.80695 3460 ft 112 kts 22°
2026-04-28 12:25 61.65968 73.81404 3535 ft 112 kts 28°
2026-04-28 12:25 61.66653 73.82210 3585 ft 114 kts 30°
2026-04-28 12:26 61.67344 73.83047 3670 ft 113 kts 29°
2026-04-28 12:26 61.68045 73.83798 3748 ft 112 kts 24°
2026-04-28 12:26 61.68766 73.84381 3834 ft 113 kts 19°
2026-04-28 12:26 61.69519 73.84920 3856 ft 116 kts 17°
2026-04-28 12:27 61.70315 73.85404 3848 ft 120 kts 15°
2026-04-28 12:27 61.71130 73.85907 3778 ft 126 kts 17°
2026-04-28 12:27 61.71961 73.86464 3774 ft 123 kts 18°
2026-04-28 12:27 61.72784 73.87025 3742 ft 124 kts 18°
2026-04-28 12:28 61.73627 73.87607 3660 ft 128 kts 17°
2026-04-28 12:28 61.74473 73.88125 3572 ft 131 kts 15°
2026-04-28 12:28 61.75350 73.88620 3483 ft 130 kts 15°
2026-04-28 12:28 61.76223 73.89153 3375 ft 132 kts 17°
2026-04-28 12:29 61.77965 73.89541 3306 ft 129 kts 352°
2026-04-28 12:29 61.78847 73.89234 3256 ft 127 kts 348°
2026-04-28 12:29 61.79710 73.88828 3207 ft 127 kts 346°
2026-04-28 12:30 61.80561 73.88361 3144 ft 127 kts 342°
2026-04-28 12:30 61.81391 73.87727 3127 ft 126 kts 338°
2026-04-28 12:30 61.82214 73.87045 3078 ft 127 kts 338°
2026-04-28 12:30 61.83025 73.86383 3049 ft 126 kts 338°
2026-04-28 12:31 61.83850 73.85712 3016 ft 125 kts 338°
2026-04-28 12:31 61.84639 73.85048 3041 ft 121 kts 337°
2026-04-28 12:31 61.85421 73.84350 3040 ft 122 kts 334°
2026-04-28 12:31 61.86189 73.83542 3039 ft 122 kts 330°
2026-04-28 12:32 61.86906 73.82641 3049 ft 122 kts 326°
2026-04-28 12:32 61.87592 73.81599 3069 ft 120 kts 321°
2026-04-28 12:32 61.88325 73.80809 3140 ft 117 kts 336°
2026-04-28 12:32 61.89084 73.80163 3182 ft 117 kts 339°
2026-04-28 12:33 61.89865 73.79619 3235 ft 117 kts 342°
2026-04-28 12:33 61.90653 73.79176 3264 ft 118 kts 345°
2026-04-28 12:33 61.91445 73.78793 3323 ft 117 kts 347°
2026-04-28 12:33 61.92238 73.78406 3358 ft 118 kts 345°
2026-04-28 12:34 61.93042 73.77969 3390 ft 118 kts 348°
2026-04-28 12:34 61.93851 73.77731 3427 ft 118 kts 353°
2026-04-28 12:34 61.94672 73.77533 3460 ft 119 kts 352°
2026-04-28 12:34 61.95482 73.77280 3499 ft 118 kts 350°
2026-04-28 12:35 61.96300 73.76984 3528 ft 119 kts 349°
2026-04-28 12:35 61.97105 73.76675 3568 ft 118 kts 349°
2026-04-28 12:35 61.97919 73.76372 3593 ft 119 kts 349°
2026-04-28 12:35 61.98737 73.76041 3628 ft 119 kts 348°
2026-04-28 12:36 61.99548 73.75703 3660 ft 119 kts 348°
2026-04-28 12:36 62.00358 73.75620 3747 ft 114 kts 18°
2026-04-28 12:36 62.00989 73.76644 3743 ft 118 kts 51°
2026-04-28 12:36 62.01494 73.77993 3796 ft 117 kts 51°
2026-04-28 12:37 62.02034 73.79314 3818 ft 118 kts 48°
2026-04-28 12:37 62.02597 73.80598 3854 ft 118 kts 46°
2026-04-28 12:37 62.03157 73.81873 3884 ft 118 kts 49°
2026-04-28 12:37 62.03673 73.83231 3863 ft 122 kts 51°
2026-04-28 12:38 62.04228 73.84672 3763 ft 128 kts 51°
2026-04-28 12:38 62.04784 73.86158 3656 ft 130 kts 53°
2026-04-28 12:38 62.05316 73.87668 3662 ft 125 kts 54°
2026-04-28 12:38 62.05850 73.89205 3536 ft 129 kts 53°
2026-04-28 12:39 62.06376 73.90767 3402 ft 133 kts 56°
2026-04-28 12:39 62.06847 73.92426 3398 ft 125 kts 60°
2026-04-28 12:39 62.07260 73.94021 3351 ft 126 kts 62°
2026-04-28 12:39 62.07668 73.95707 3267 ft 128 kts 64°
2026-04-28 12:40 62.08032 73.97437 3220 ft 126 kts 66°
2026-04-28 12:40 62.08405 73.99136 3161 ft 126 kts 65°
2026-04-28 12:40 62.08780 74.00841 3101 ft 126 kts 66°
2026-04-28 12:40 62.09117 74.02546 3082 ft 124 kts 69°
2026-04-28 12:41 62.09343 74.04296 3112 ft 120 kts 77°
2026-04-28 12:41 62.09538 74.06014 3131 ft 119 kts 76°
2026-04-28 12:41 62.09742 74.07752 3108 ft 121 kts 76°
2026-04-28 12:41 62.09950 74.09463 3120 ft 120 kts 75°
2026-04-28 12:42 62.10169 74.11214 3090 ft 122 kts 75°
2026-04-28 12:42 62.10384 74.12949 3125 ft 119 kts 75°
2026-04-28 12:42 62.10590 74.14651 3141 ft 119 kts 76°
2026-04-28 12:42 62.10804 74.16367 3143 ft 120 kts 75°
2026-04-28 12:43 62.11029 74.18067 3149 ft 120 kts 73°
2026-04-28 12:43 62.11269 74.19776 3167 ft 119 kts 73°
2026-04-28 12:43 62.11496 74.21470 3177 ft 119 kts 74°
2026-04-28 12:43 62.11716 74.23185 3189 ft 119 kts 75°
2026-04-28 12:44 62.11935 74.24910 3173 ft 121 kts 75°
2026-04-28 12:44 62.12154 74.26663 3171 ft 121 kts 75°
2026-04-28 12:44 62.12361 74.28385 3174 ft 121 kts 76°
2026-04-28 12:44 62.12560 74.30145 3166 ft 121 kts 77°
2026-04-28 12:45 62.12741 74.31880 3166 ft 121 kts 77°
2026-04-28 12:45 62.12928 74.33637 3165 ft 121 kts 77°
2026-04-28 12:45 62.13104 74.35413 3137 ft 122 kts 79°
2026-04-28 12:45 62.13239 74.37176 3146 ft 121 kts 82°
2026-04-28 12:46 62.13337 74.38978 3130 ft 121 kts 83°
2026-04-28 12:46 62.13444 74.40761 3100 ft 123 kts 82°
2026-04-28 12:46 62.13559 74.42593 3017 ft 127 kts 82°
2026-04-28 12:46 62.13651 74.44390 2791 ft 116 kts 85°
2026-04-28 12:47 62.13728 74.46113 2447 ft 115 kts 83°
2026-04-28 12:47 62.13939 74.47706 2177 ft 112 kts 69°
2026-04-28 12:47 62.14244 74.49210 1850 ft 107 kts 63°
2026-04-28 12:47 62.14636 74.50504 1525 ft 104 kts 56°
2026-04-28 12:48 62.15130 74.51559 1202 ft 100 kts 33°
2026-04-28 12:48 62.15689 74.52100 985 ft 86 kts 15°
2026-04-28 12:48 62.16216 74.52342 792 ft 74 kts
2026-04-28 12:48 62.16728 74.52512 559 ft 74 kts 10°
2026-04-28 12:49 62.17208 74.52678 410 ft 67 kts
2026-04-28 12:49 62.17668 74.52841 311 ft 65 kts
2026-04-28 12:49 62.18105 74.53007 224 ft 61 kts
2026-04-28 12:49 62.18478 74.53151 203 ft 46 kts
2026-04-28 12:50 62.18756 74.53257 203 ft 33 kts 12°
2026-04-28 12:50 62.18947 74.53332 203 ft 23 kts
2026-04-28 12:50 62.19086 74.53379 203 ft 17 kts 12°
2026-04-28 12:50 62.19193 74.53416 203 ft 12 kts
2026-04-28 12:51 62.19287 74.53451 203 ft 15 kts 11°
2026-04-28 12:51 62.19397 74.53497 203 ft 17 kts
2026-04-28 12:51 62.19454 74.53414 203 ft 8 kts 273°
2026-04-28 12:51 62.19465 74.53273 203 ft 0 kts 281°
2026-04-28 12:53 62.19465 74.53268 203 ft 4 kts 281°
2026-04-28 12:53 62.19480 74.53200 203 ft 6 kts 287°
2026-04-28 12:53 62.19488 74.53097 201 ft 5 kts 288°
2026-04-28 12:53 62.19494 74.53080 201 ft 16 kts 307°
2026-04-28 12:54 62.19485 74.53094 201 ft 5 kts 243°
2026-04-28 12:54 62.19493 74.53029 200 ft 3 kts 277°